This is the latest recevied weather packets stored in our database for station/object AD8BV. If no packets are shown the sender has not sent any weather packets the latest 10 day(s).
| Time | Temp. | Humidity | Pressure | Rain* | Wind** | Luminosity | Snow |
|---|---|---|---|---|---|---|---|
| 1777935901 | 22.78° C | 55% | 1000.5 hPa | 0 mm | - | 42 W/m² | - |
| 1777935601 | 23.33° C | 53% | 1000.6 hPa | 0 mm | - | 30 W/m² | - |
| 1777935297 | 23.89° C | 52% | 1000.5 hPa | 0 mm | - | 34 W/m² | - |
| 1777934994 | 23.89° C | 53% | 1000.3 hPa | 0 mm | - | 117 W/m² | - |
| 1777934690 | 23.33° C | 52% | 1000.4 hPa | 0 mm | - | 90 W/m² | - |
| 1777934388 | 23.33° C | 52% | 1000.3 hPa | 0 mm | - | 58 W/m² | - |
| 1777934084 | 23.89° C | 50% | 1000.6 hPa | 0 mm | - | 69 W/m² | - |
| 1777933779 | 23.89° C | 50% | 1000.5 hPa | 0 mm | - | 91 W/m² | - |
| 1777933477 | 23.33° C | 52% | 1000.6 hPa | 0 mm | - | 108 W/m² | - |
| 1777933175 | 23.89° C | 51% | 1000.3 hPa | 0 mm | - | 67 W/m² | - |
| 1777932871 | 23.33° C | 50% | 1000.2 hPa | 0 mm | - | 78 W/m² | - |
| 1777932569 | 23.89° C | 49% | 1000.3 hPa | 0 mm | - | 100 W/m² | - |
| 1777932265 | 23.89° C | 49% | 1000.6 hPa | 0 mm | - | 133 W/m² | - |
| 1777931962 | 23.33° C | 50% | 1000.6 hPa | 0 mm | - | 146 W/m² | - |
| 1777931659 | 23.89° C | 50% | 1000.6 hPa | 0 mm | - | 79 W/m² | - |
| 1777931355 | 24.44° C | 48% | 1000.9 hPa | 0 mm | - | 72 W/m² | - |
| 1777931052 | 23.89° C | 51% | 1000.9 hPa | 0 mm | - | 184 W/m² | - |
| 1777930749 | 23.33° C | 50% | 1000.9 hPa | 0 mm | - | 216 W/m² | - |
| 1777930444 | 24.44° C | 49% | 1001.2 hPa | 0 mm | - | 85 W/m² | - |
| 1777930143 | 24.44° C | 48% | 1001 hPa | 0 mm | - | 281 W/m² | - |
| 1777929838 | 25° C | 49% | 1001.3 hPa | 0 mm | - | 187 W/m² | - |
| 1777929536 | 25° C | 48% | 1001.3 hPa | 0 mm | - | 367 W/m² | - |
| 1777929232 | 25° C | 49% | 1001.5 hPa | 0 mm | - | 392 W/m² | - |
| 1777928929 | 25° C | 51% | 1001.5 hPa | 0 mm | - | 428 W/m² | - |
| 1777928626 | 23.89° C | 50% | 1001.7 hPa | 0 mm | - | 283 W/m² | - |
* Rain latest hour (hover to see other rain measurements)
** Current wind speed in m/s (hover to see current wind gust speed)